Location: Huntsville
(41.2590°N, 111.7678°W)
Time: 07:00:03
(UTC+00:00)

Envisat - Pass Details

Date: 02 December 2021
Orbit: 764 x 766 km, 98.2° (Epoch: 18 January)

Event Time Altitude Azimuth Distance (km) Brightness Sun altitude
Rises 11:48:25 0° 21° (NNE) 3,241 6.5 -30.6°
Reaches altitude 10° 11:50:55 10° 31° (NNE) 2,310 5.7 -30.1°
Maximum altitude 11:55:35 36° 97° (E) 1,209 4.5 -29.2°
Drops below altitude 10° 12:00:12 10° 163° (SSE) 2,293 5.7 -28.4°
Sets 12:02:40 0° 172° (S) 3,214 6.4 -27.9°
